Location: Recife
(8.0585°S, 34.8848°W)
Time: 10:29:20
(UTC-03:00)

Transit 2A Rocket - Pass Details

Date: 16 April 2026
Orbit: 587 x 895 km, 66.7° (Epoch: 14 May)

Event Time Altitude Azimuth Distance (km) Brightness Sun altitude
Rises 22:35:22 0° 183° (S) 3,417 - -78.9°
Reaches altitude 10° 22:38:05 10° 173° (S) 2,512 - -79.6°
Maximum altitude 22:43:14 31° 111° (ESE) 1,494 - -80.8°
Drops below altitude 10° 22:48:28 10° 50° (NE) 2,557 - -82.0°
Sets 22:51:14 0° 41° (NE) 3,487 - -82.7°
